Location: Campo Alegre
(10.1673°N, 67.4431°W)
Time: 11:59:11
(UTC+00:00)

SJ-6F - Pass Details

Date: 14 April 2024
Orbit: 559 x 581 km, 97.9° (Epoch: 30 May)

Event Time Altitude Azimuth Distance (km) Brightness Sun altitude
Rises 09:49:55 0° 10° (N) 2,736 8.2 -8.0°
Reaches altitude 10° 09:52:03 10° 9° (N) 1,840 7.3 -7.5°
Maximum altitude 09:56:01 83° 283° (WNW) 566 4.3 -6.5°
Drops below altitude 10° 10:00:00 10° 194° (SSW) 1,840 6.8 -5.6°
Sets 10:02:08 0° 193° (SSW) 2,736 7.6 -5.0°
